This demonstration page uses our WeatherBlox Daily Observations layout. Learn more.

Left ArrowRight Arrow

Hourly Observations for July 21, 2017

Temp ( °F °C ) Dew Point ( °F °C ) Humidity (%) Winds ( mph kmh ) Pressure ( in mb ) Visibility ( mi km ) Precip ( " mm )
12:53 am 00:53 Clear 82 27.8 55 12.8 40 40 SE 9 15 29.91 1013 10 16 0.00 0.00
1:53 am 01:53 Clear 81 27.2 56 13.3 42 42 SE 10 17 29.89 1012 10 16 0.00 0.00
2:53 am 02:53 Clear 79 26.1 56 13.3 45 45 ESE 8 13 29.88 1012 10 16 0.00 0.00
3:53 am 03:53 Clear 78 25.6 57 13.9 48 48 SE 10 17 29.86 1011 10 16 0.00 0.00
4:53 am 04:53 Clear 77 25 58 14.4 52 52 SE 10 17 29.86 1011 10 16 0.00 0.00
5:53 am 05:53 Clear 75 23.9 59 15 58 58 SE 9 15 29.87 1012 10 16 0.00 0.00
6:53 am 06:53 Clear 74 23.3 59 15 60 60 SE 10 17 29.88 1012 10 16 0.00 0.00
7:53 am 07:53 Sunny 75 23.9 60 15.6 60 60 SE 9 15 29.90 1013 10 16 0.00 0.00
8:53 am 08:53 Sunny 80 26.7 61 16.1 52 52 SSE 12 19 29.91 1013 10 16 0.00 0.00
9:53 am 09:53 Sunny 85 29.4 61 16.1 45 45 SSE 10 17 29.90 1013 10 16 0.00 0.00
10:53 am 10:53 Sunny 88 31.1 61 16.1 40 40 SSE 8 13 29.90 1013 10 16 0.00 0.00
11:53 am 11:53 Sunny 91 32.8 61 16.1 37 37 SSE 7 11 29.89 1012 10 16 0.00 0.00
12:53 pm 12:53 Sunny 94 34.4 61 16.1 33 33 SSW 8 13 29.87 1012 10 16 0.00 0.00
1:53 pm 13:53 Mostly Cloudy 95 35 60 15.6 31 31 SE 7 11 29.85 1011 10 16 0.00 0.00
2:53 pm 14:53 Mostly Sunny 96 35.6 57 13.9 27 27 Calm 29.82 1010 10 16 0.00 0.00
3:53 pm 15:53 Partly Cloudy 93 33.9 62 16.7 36 36 SSE 20 31 29.80 1009 8 13 0.00 0.00
4:25 pm 16:25 Sunny with Nearby Thunderstorms 95 35 59 15 30 30 SSE 20 31 29.68 1005 10 16 0.00 0.00
4:53 pm 16:53 Mostly Sunny 93 33.9 57 13.9 30 30 SSE 15 24 29.80 1009 10 16 0.00 0.00
5:53 pm 17:53 Mostly Cloudy 87 30.6 62 16.7 43 43 W 17 28 29.82 1010 10 16 0.00 0.00
6:00 pm 18:00 Partly Cloudy 87 30.6 63 17.2 45 45 W 13 20 29.77 1008 10 16 0.00 0.00
6:53 pm 18:53 Sunny 87 30.6 63 17.2 45 45 SW 9 15 29.82 1010 10 16 0.00 0.00
7:53 pm 19:53 Sunny 88 31.1 62 16.7 42 42 S 10 17 29.82 1010 10 16 0.00 0.00
8:53 pm 20:53 Sunny 85 29.4 62 16.7 46 46 S 8 13 29.83 1010 10 16 0.00 0.00
9:53 pm 21:53 Clear 83 28.3 63 17.2 51 51 SSE 5 7 29.83 1010 10 16 0.00 0.00
10:53 pm 22:53 Clear 81 27.2 62 16.7 53 53 SSE 5 7 29.85 1011 10 16 0.00 0.00
11:53 pm 23:53 Clear 79 26.1 62 16.7 56 56 SE 7 11 29.85 1011 10 16 0.00 0.00

Powered by AerisWeather